Weather History for Midland, MI

Change the Weather History Date:

Saturday, February 8, 2014

  Actual Average (KMBS) Record (KMBS)
Temperature  
Mean Temperature 10 °F 23 °F  
Max Temperature 19 °F 30 °F 39 °F (1998)
Min Temperature 0 °F 16 °F 0 °F (2004)
Degree Days  
Heating Degree Days 56    
Month to date heating degree days  
Since 1 July heating degree days  
Cooling Degree Days 0    
Month to date cooling degree days  
Year to date cooling degree days  
Moisture  
Dew Point 6 °F    
Average Humidity 80    
Maximum Humidity 90    
Minimum Humidity 63    
Precipitation  
Precipitation 0.00 in 0.05 in 0.35 in (2001)
Month to date precipitation 0.36  
Year to date precipitation 2.07  
Snow  
Snow 0.00 in - - ()
Month to date snowfall  
Since 1 July snowfall  
Snow Depth -    
Sea Level Pressure  
Sea Level Pressure 30.20 in    
Wind  
Wind Speed 5 mph (SSW)    
Max Wind Speed 10 mph    
Max Gust Speed -    
Visibility 9 miles    
Events Snow    
T = Trace of Precipitation, MM = Missing Value Source: NWS Daily Summary

Daily Weather History Graph

Daily Weather History Graph

Search for Another Location

Airport:

Trip Planner

Search our weather history database for the weather conditions in past years. The results will help you decide how hot, cold, wet, or windy it might be!

Date:

Astronomy

Feb. 08, 2014 Rise Set
Actual Time 7:45 AM EST 5:57 PM EST
Civil Twilight 7:15 AM EST 6:27 PM EST
Nautical Twilight 6:41 AM EST 7:01 PM EST
Astronomical Twilight 6:07 AM EST 7:35 PM EST
Moon 12:48 PM EST (2/8) 2:59 AM EST (2/8)
Length of Visible Light 11h 12m
Length of Day
10h 12m
Waxing Gibbous, 68% of the Moon is Illuminated
Feb 8
Waxing Gibbous
Feb 14
Full
Feb 22
Last Quarter
Mar 1
New
Mar 8
First Quarter

Hourly Weather History & Observations

Time (EST) Temp. Windchill Dew Point Humidity Pressure Visibility Wind Dir Wind Speed Gust Speed Precip Events Conditions
12:14 AM 7.2 °F -5.4 °F 1.0 °F 76% 30.21 in 10.0 mi SW 8.1 mph - N/A   Clear
12:33 AM 6.4 °F -5.2 °F 0.5 °F 77% 30.22 in 10.0 mi SW 6.9 mph - N/A   Clear
12:54 AM 6.4 °F -5.2 °F 0.5 °F 77% 30.22 in 10.0 mi SW 6.9 mph - N/A   Clear
1:14 AM 6.3 °F -5.4 °F 0.5 °F 77% 30.22 in 10.0 mi SW 6.9 mph - N/A   Clear
1:33 AM 5.9 °F -5.8 °F 0.5 °F 78% 30.22 in 10.0 mi SW 6.9 mph - N/A   Clear
1:54 AM 5.9 °F -8.0 °F 0.7 °F 79% 30.23 in 10.0 mi SW 9.2 mph - N/A   Clear
2:14 AM 5.9 °F -7.0 °F 0.5 °F 78% 30.23 in 10.0 mi SW 8.1 mph - N/A   Clear
2:33 AM 5.7 °F -7.2 °F 0.5 °F 79% 30.22 in 10.0 mi SW 8.1 mph - N/A   Clear
2:54 AM 5.0 °F -8.1 °F -0.0 °F 80% 30.22 in 10.0 mi SW 8.1 mph - N/A   Clear
3:14 AM 5.4 °F -6.5 °F 0.5 °F 80% 30.22 in 10.0 mi SW 6.9 mph - N/A   Clear
3:33 AM 5.0 °F -5.6 °F 0.5 °F 82% 30.22 in 10.0 mi WSW 5.8 mph - N/A   Clear
3:54 AM 5.0 °F -5.6 °F 0.9 °F 83% 30.23 in 10.0 mi SW 5.8 mph - N/A   Clear
4:14 AM 5.0 °F -4.1 °F 1.2 °F 84% 30.23 in 10.0 mi WSW 4.6 mph - N/A   Clear
4:33 AM 4.8 °F -2.3 °F 1.2 °F 85% 30.23 in 10.0 mi WSW 3.5 mph - N/A   Clear
4:54 AM 4.6 °F -2.5 °F 1.2 °F 86% 30.23 in 10.0 mi SSW 3.5 mph - N/A   Clear
5:14 AM 1.2 °F - -2.2 °F 86% 30.23 in 10.0 mi Calm Calm - N/A   Clear
5:33 AM 2.3 °F - -0.9 °F 86% 30.23 in 10.0 mi Calm Calm - N/A   Clear
5:54 AM 2.7 °F - -0.6 °F 86% 30.23 in 10.0 mi Calm Calm - N/A   Clear
6:14 AM 3.0 °F -4.4 °F -0.2 °F 86% 30.23 in 10.0 mi SSW 3.5 mph - N/A   Clear
6:34 AM 1.6 °F - -2.0 °F 85% 30.24 in 10.0 mi Calm Calm - N/A   Clear
6:54 AM 1.2 °F - -2.4 °F 85% 30.23 in 10.0 mi Calm Calm - N/A   Clear
7:14 AM -0.2 °F -8.1 °F -4.0 °F 84% 30.23 in 10.0 mi SSW 3.5 mph - N/A   Clear
7:34 AM -0.8 °F - -4.2 °F 85% 30.24 in 10.0 mi Calm Calm - N/A   Clear
7:54 AM -0.0 °F - -3.8 °F 84% 30.24 in 10.0 mi Calm Calm - N/A   Clear
8:14 AM -0.0 °F - -3.8 °F 84% 30.24 in 10.0 mi Calm Calm - N/A   Scattered Clouds
8:34 AM -0.9 °F - -5.1 °F 83% 30.24 in 10.0 mi Calm Calm - N/A   Mostly Cloudy
8:54 AM 1.4 °F - -2.4 °F 84% 30.25 in 10.0 mi Calm Calm - N/A   Overcast
9:14 AM 2.1 °F - -1.8 °F 83% 30.25 in 7.0 mi Calm Calm - N/A   Overcast
9:34 AM 4.3 °F -2.9 °F 0.5 °F 84% 30.25 in 10.0 mi South 3.5 mph - N/A Snow Light Snow
9:54 AM 6.3 °F -2.6 °F 2.8 °F 86% 30.25 in 10.0 mi SSW 4.6 mph - N/A   Overcast
10:14 AM 7.7 °F 1.0 °F 4.1 °F 85% 30.25 in 10.0 mi SSW 3.5 mph - N/A Snow Light Snow
10:34 AM 8.6 °F - 5.0 °F 85% 30.25 in 10.0 mi Calm Calm - N/A   Mostly Cloudy
10:53 AM 9.9 °F - 5.5 °F 83% 30.24 in 10.0 mi Calm Calm - N/A   Scattered Clouds
11:14 AM 12.0 °F 4.1 °F 5.9 °F 76% 30.24 in 10.0 mi South 4.6 mph - N/A   Scattered Clouds
11:34 AM 13.1 °F 1.8 °F 6.1 °F 74% 30.24 in 10.0 mi SSW 8.1 mph - N/A   Clear
11:53 AM 14.7 °F 7.3 °F 6.8 °F 71% 30.23 in 10.0 mi SSW 4.6 mph - N/A   Clear
12:14 PM 16.3 °F 10.8 °F 7.3 °F 68% 30.22 in 10.0 mi SW 3.5 mph - N/A   Clear
12:34 PM 17.6 °F 8.2 °F 7.5 °F 65% 30.21 in 10.0 mi WSW 6.9 mph - N/A   Scattered Clouds
12:53 PM 16.7 °F 6.2 °F 7.5 °F 67% 30.20 in 10.0 mi SW 8.1 mph - N/A   Scattered Clouds
1:14 PM 16.7 °F 5.3 °F 7.7 °F 68% 30.19 in 10.0 mi SW 9.2 mph - N/A   Scattered Clouds
1:34 PM 17.4 °F 6.2 °F 8.2 °F 67% 30.18 in 10.0 mi SSW 9.2 mph - N/A   Mostly Cloudy
1:53 PM 18.3 °F 7.3 °F 8.6 °F 66% 30.18 in 10.0 mi SSW 9.2 mph - N/A   Mostly Cloudy
2:14 PM 18.1 °F 7.9 °F 9.5 °F 69% 30.18 in 10.0 mi SSW 8.1 mph - N/A   Mostly Cloudy
2:34 PM 18.5 °F 9.3 °F 9.5 °F 68% 30.17 in 10.0 mi SW 6.9 mph - N/A   Mostly Cloudy
2:53 PM 19.2 °F 11.3 °F 8.8 °F 64% 30.16 in 10.0 mi SW 5.8 mph - N/A   Mostly Cloudy
3:14 PM 19.4 °F 7.9 °F 8.6 °F 63% 30.16 in 10.0 mi WSW 10.4 mph - N/A   Scattered Clouds
3:33 PM 19.4 °F 11.5 °F 9.5 °F 65% 30.16 in 10.0 mi SW 5.8 mph - N/A   Scattered Clouds
3:54 PM 18.7 °F 9.5 °F 10.9 °F 72% 30.15 in 10.0 mi South 6.9 mph - N/A Snow Light Snow
4:14 PM 19.0 °F 11.1 °F 10.4 °F 69% 30.15 in 10.0 mi SSW 5.8 mph - N/A   Scattered Clouds
4:34 PM 19.2 °F 9.3 °F 10.6 °F 69% 30.15 in 10.0 mi SW 8.1 mph - N/A   Mostly Cloudy
4:54 PM 18.5 °F 6.8 °F 11.5 °F 74% 30.15 in 5.0 mi SSW 10.4 mph - N/A Snow Light Snow
5:13 PM 18.1 °F 7.1 °F 10.9 °F 73% 30.15 in 5.0 mi SW 9.2 mph - N/A Snow Light Snow
5:34 PM 17.6 °F 9.3 °F 11.3 °F 76% 30.15 in 10.0 mi SSW 5.8 mph - N/A Snow Light Snow
5:54 PM 17.6 °F 7.3 °F 11.3 °F 76% 30.15 in 5.0 mi SSW 8.1 mph - N/A Snow Light Snow
6:14 PM 17.4 °F 9.1 °F 12.0 °F 79% 30.15 in 5.0 mi SW 5.8 mph - N/A Snow Light Snow
6:34 PM 17.2 °F 10.2 °F 12.2 °F 81% 30.15 in 5.0 mi SSW 4.6 mph - N/A Snow Light Snow
6:54 PM 17.2 °F 8.9 °F 12.6 °F 82% 30.16 in 7.0 mi South 5.8 mph - N/A   Mostly Cloudy
7:14 PM 17.1 °F 10.0 °F 13.1 °F 84% 30.17 in 2.5 mi SSW 4.6 mph - N/A Snow Light Snow
7:34 PM 16.7 °F 9.6 °F 13.1 °F 86% 30.16 in 3.0 mi SSW 4.6 mph - N/A Snow Light Snow
7:53 PM 16.7 °F 11.2 °F 13.5 °F 87% 30.16 in 3.0 mi South 3.5 mph - N/A Snow Light Snow
8:14 PM 16.7 °F 9.6 °F 13.1 °F 86% 30.15 in 4.0 mi SSW 4.6 mph - N/A Snow Light Snow
8:34 PM 16.7 °F 9.6 °F 13.1 °F 86% 30.15 in 7.0 mi SSW 4.6 mph - N/A Snow Light Snow
8:53 PM 16.5 °F 9.4 °F 13.1 °F 86% 30.15 in 10.0 mi SSW 4.6 mph - N/A   Scattered Clouds
9:14 PM 16.7 °F 8.3 °F 13.1 °F 86% 30.15 in 4.0 mi SSW 5.8 mph - N/A Snow Light Snow
9:34 PM 16.5 °F 9.4 °F 13.1 °F 86% 30.15 in 5.0 mi SSW 4.6 mph - N/A Snow Light Snow
9:53 PM 16.2 °F 9.0 °F 12.6 °F 86% 30.15 in 7.0 mi SSW 4.6 mph - N/A Snow Light Snow
10:14 PM 15.8 °F 7.2 °F 12.2 °F 86% 30.15 in 7.0 mi SSW 5.8 mph - N/A   Mostly Cloudy
10:34 PM 15.4 °F 9.8 °F 11.8 °F 86% 30.15 in 10.0 mi SSW 3.5 mph - N/A   Overcast
10:53 PM 14.5 °F - 11.3 °F 87% 30.15 in 7.0 mi Calm Calm - N/A   Scattered Clouds
11:14 PM 12.7 °F - 9.9 °F 88% 30.14 in 10.0 mi Calm Calm - N/A   Clear
11:34 PM 12.0 °F - 9.7 °F 90% 30.14 in 10.0 mi Calm Calm - N/A   Clear
11:53 PM 8.8 °F - 6.3 °F 89% 30.13 in 10.0 mi Calm Calm - N/A   Clear